| time (UTC) | temp F | wind direction | speed MPH | gust MPH | rain 1hr in | rain 24hr in | rain mn in | humidity % | barometer mb |
| 20260506194553 | 85 | 132 | 5.0 | 9.0 | 0.00 | 0.00 | 0.00 | 76 | 1009.9 |
| 20260506193053 | 85 | 84 | 5.0 | 10.0 | 0.00 | 0.00 | 0.00 | 76 | 1009.9 |
| 20260506191547 | 85 | 122 | 2.0 | 13.0 | 0.00 | 0.00 | 0.00 | 77 | 1010.1 |
| 20260506190052 | 85 | 113 | 4.0 | 9.0 | 0.00 | 0.00 | 0.00 | 77 | 1010.3 |
| 20260506184546 | 85 | 120 | 3.0 | 9.0 | 0.00 | 0.00 | 0.00 | 77 | 1010.4 |
| 20260506183101 | 84 | 131 | 1.0 | 6.0 | 0.00 | 0.00 | 0.00 | 82 | 1010.6 |
| 20260506181608 | 82 | 110 | 3.0 | 8.0 | 0.00 | 0.00 | 0.00 | 83 | 1011.0 |
| 20260506180054 | 83 | 123 | 1.0 | 4.0 | 0.00 | 0.00 | 0.00 | 81 | 1011.2 |
| 20260506174551 | 83 | 118 | 0.0 | 4.0 | 0.00 | 0.00 | 0.00 | 82 | 1011.5 |
| 20260506173119 | 82 | 124 | 1.0 | 6.0 | 0.00 | 0.00 | 0.00 | 83 | 1011.7 |
| 20260506171553 | 82 | 127 | 2.0 | 10.0 | 0.00 | 0.00 | 0.00 | 83 | 1011.8 |
| 20260506170052 | 81 | 100 | 1.0 | 7.0 | 0.00 | 0.00 | 0.00 | 85 | 1011.9 |
| 20260506164550 | 79 | 119 | 2.0 | 5.0 | 0.00 | 0.00 | 0.00 | 88 | 1011.8 |
| 20260506163048 | 79 | 118 | 2.0 | 6.0 | 0.00 | 0.00 | 0.00 | 89 | 1012.0 |
| 20260506161550 | 79 | 116 | 2.0 | 6.0 | 0.00 | 0.00 | 0.00 | 88 | 1011.7 |
| 20260506154551 | 79 | 94 | 2.0 | 4.0 | 0.00 | 0.00 | 0.00 | 87 | 1011.5 |
| 20260506153050 | 79 | 120 | 1.0 | 6.0 | 0.00 | 0.00 | 0.00 | 87 | 1011.6 |
| 20260506151550 | 79 | 109 | 3.0 | 7.0 | 0.00 | 0.00 | 0.00 | 86 | 1011.1 |
| 20260506150051 | 79 | 116 | 2.0 | 6.0 | 0.00 | 0.00 | 0.00 | 87 | 1010.9 |
| 20260506144553 | 79 | 113 | 2.0 | 8.0 | 0.00 | 0.00 | 0.00 | 88 | 1010.6 |
| 20260506143048 | 78 | 115 | 3.0 | 6.0 | 0.00 | 0.00 | 0.00 | 89 | 1010.4 |
| 20260506141552 | 78 | 114 | 2.0 | 4.0 | 0.00 | 0.00 | 0.00 | 91 | 1010.4 |
| 20260506140051 | 77 | 112 | 2.0 | 7.0 | 0.00 | 0.00 | 0.00 | 92 | 1010.7 |
| 20260506134548 | 76 | 120 | 2.0 | 6.0 | 0.00 | 0.00 | 0.00 | 93 | 1010.8 |
| 20260506133048 | 76 | 124 | 0.0 | 2.0 | 0.00 | 0.00 | 0.00 | 94 | 1010.7 |
| 20260506131559 | 75 | 122 | 0.0 | 3.0 | 0.00 | 0.00 | 0.00 | 94 | 1010.8 |
| 20260506130052 | 75 | 120 | 2.0 | 6.0 | 0.00 | 0.00 | 0.00 | 95 | 1010.7 |
| 20260506124555 | 75 | 122 | 1.0 | 4.0 | 0.00 | 0.00 | 0.00 | 95 | 1010.7 |
| 20260506123052 | 74 | 124 | 1.0 | 3.0 | 0.00 | 0.00 | 0.00 | 95 | 1010.6 |
| 20260506121547 | 74 | 124 | 0.0 | 1.0 | 0.00 | 0.00 | 0.00 | 95 | 1010.3 |
| 20260506120050 | 74 | 123 | 1.0 | 2.0 | 0.00 | 0.00 | 0.00 | 94 | 1010.2 |
| 20260506114545 | 74 | 124 | 0.0 | 5.0 | 0.00 | 0.00 | 0.00 | 94 | 1010.1 |
| 20260506113053 | 74 | 113 | 1.0 | 3.0 | 0.00 | 0.00 | 0.00 | 94 | 1009.7 |
| 20260506111552 | 74 | 122 | 2.0 | 5.0 | 0.00 | 0.00 | 0.00 | 94 | 1009.8 |
| 20260506110050 | 75 | 102 | 2.0 | 5.0 | 0.00 | 0.00 | 0.00 | 94 | 1009.5 |
| 20260506104550 | 75 | 115 | 2.0 | 5.0 | 0.00 | 0.00 | 0.00 | 94 | 1009.5 |
| 20260506103050 | 74 | 114 | 1.0 | 4.0 | 0.00 | 0.00 | 0.00 | 94 | 1009.5 |
| 20260506101549 | 74 | 110 | 2.0 | 6.0 | 0.00 | 0.00 | 0.00 | 94 | 1009.5 |
| 20260506100049 | 74 | 125 | 2.0 | 6.0 | 0.00 | 0.00 | 0.00 | 93 | 1009.4 |
| 20260506094607 | 74 | 108 | 1.0 | 6.0 | 0.00 | 0.00 | 0.00 | 93 | 1009.3 |
| 20260506093048 | 75 | 119 | 2.0 | 5.0 | 0.00 | 0.00 | 0.00 | 93 | 1009.0 |
| 20260506091550 | 75 | 122 | 2.0 | 4.0 | 0.00 | 0.00 | 0.00 | 92 | 1009.2 |
| 20260506090052 | 75 | 110 | 1.0 | 6.0 | 0.00 | 0.00 | 0.00 | 92 | 1009.4 |
| 20260506084552 | 75 | 120 | 2.0 | 6.0 | 0.00 | 0.00 | 0.00 | 92 | 1009.5 |
| 20260506083050 | 76 | 120 | 1.0 | 3.0 | 0.00 | 0.00 | 0.00 | 92 | 1009.4 |
| 20260506081555 | 76 | 116 | 2.0 | 4.0 | 0.00 | 0.00 | 0.00 | 91 | 1009.5 |
| 20260506073045 | 76 | 98 | 2.0 | 8.0 | 0.00 | 0.00 | 0.00 | 91 | 1009.9 |
| 20260506071551 | 76 | 89 | 3.0 | 8.0 | 0.00 | 0.00 | 0.00 | 91 | 1009.9 |
| 20260506061549 | 76 | 101 | 2.0 | 10.0 | 0.00 | 0.00 | 0.00 | 90 | 1010.4 |
| 20260506060110 | 76 | 118 | 3.0 | 7.0 | 0.00 | 0.00 | 0.00 | 91 | 1010.3 |
| 20260506044604 | 76 | 115 | 2.0 | 8.0 | 0.00 | 0.00 | 0.00 | 89 | 1010.4 |
| 20260506043049 | 76 | 119 | 2.0 | 7.0 | 0.00 | 0.00 | 0.00 | 89 | 1010.1 |
| 20260506041550 | 76 | 117 | 2.0 | 7.0 | 0.00 | 0.00 | 0.00 | 89 | 1010.2 |
| 20260506040053 | 77 | 98 | 2.0 | 7.0 | 0.00 | 0.00 | 0.00 | 89 | 1010.2 |
| 20260506034547 | 77 | 122 | 3.0 | 8.0 | 0.00 | 0.00 | 0.00 | 88 | 1010.1 |
| 20260506033047 | 77 | 117 | 3.0 | 8.0 | 0.00 | 0.00 | 0.00 | 87 | 1009.7 |
| 20260506031557 | 77 | 113 | 4.0 | 11.0 | 0.00 | 0.00 | 0.00 | 86 | 1009.6 |
| 20260506030053 | 77 | 107 | 4.0 | 9.0 | 0.00 | 0.00 | 0.00 | 86 | 1009.6 |
| 20260506024557 | 77 | 101 | 4.0 | 8.0 | 0.00 | 0.00 | 0.00 | 86 | 1009.4 |
| 20260506023050 | 78 | 109 | 4.0 | 11.0 | 0.00 | 0.00 | 0.00 | 86 | 1009.2 |
| 20260506021549 | 78 | 117 | 5.0 | 11.0 | 0.00 | 0.00 | 0.00 | 86 | 1008.8 |
| 20260506020048 | 78 | 103 | 3.0 | 10.0 | 0.00 | 0.00 | 0.00 | 85 | 1008.9 |
| 20260506014552 | 78 | 117 | 4.0 | 10.0 | 0.00 | 0.00 | 0.00 | 84 | 1008.7 |
| 20260506013052 | 78 | 96 | 4.0 | 12.0 | 0.00 | 0.00 | 0.00 | 83 | 1008.5 |
| 20260506011549 | 79 | 110 | 4.0 | 10.0 | 0.00 | 0.00 | 0.00 | 82 | 1008.1 |
| 20260506010048 | 79 | 105 | 4.0 | 9.0 | 0.00 | 0.00 | 0.00 | 81 | 1008.5 |
| 20260506004551 | 79 | 107 | 5.0 | 12.0 | 0.00 | 0.00 | 0.00 | 81 | 1008.2 |
| 20260506003049 | 80 | 112 | 5.0 | 12.0 | 0.00 | 0.00 | 0.00 | 80 | 1007.9 |
| 20260506001552 | 80 | 98 | 6.0 | 14.0 | 0.00 | 0.00 | 0.00 | 78 | 1008.0 |
| 20260506000047 | 80 | 98 | 4.0 | 12.0 | 0.00 | 0.00 | 0.00 | 78 | 1008.0 |
| 20260505234551 | 80 | 115 | 8.0 | 14.0 | 0.00 | 0.00 | 0.00 | 77 | 1007.9 |
| 20260505233050 | 81 | 110 | 6.0 | 15.0 | 0.00 | 0.00 | 0.00 | 78 | 1007.8 |
| 20260505231601 | 81 | 112 | 5.0 | 14.0 | 0.00 | 0.00 | 0.00 | 78 | 1007.7 |
| 20260505230056 | 81 | 75 | 7.0 | 17.0 | 0.00 | 0.00 | 0.00 | 77 | 1007.7 |
| 20260505224548 | 81 | 115 | 6.0 | 18.0 | 0.00 | 0.00 | 0.00 | 78 | 1007.8 |
| 20260505223050 | 82 | 124 | 5.0 | 14.0 | 0.00 | 0.00 | 0.00 | 77 | 1008.0 |
| 20260505221549 | 82 | 90 | 5.0 | 17.0 | 0.00 | 0.00 | 0.00 | 77 | 1007.9 |
| 20260505220046 | 82 | 118 | 5.0 | 14.0 | 0.00 | 0.00 | 0.00 | 77 | 1008.1 |
| 20260505214550 | 82 | 122 | 5.0 | 16.0 | 0.00 | 0.00 | 0.00 | 77 | 1008.1 |
| 20260505213056 | 82 | 119 | 7.0 | 19.0 | 0.00 | 0.00 | 0.00 | 75 | 1008.3 |
| 20260505211552 | 82 | 102 | 6.0 | 14.0 | 0.00 | 0.00 | 0.00 | 76 | 1008.5 |
| 20260505210048 | 82 | 122 | 4.0 | 12.0 | 0.00 | 0.00 | 0.00 | 77 | 1008.7 |
| 20260505204554 | 82 | 77 | 4.0 | 13.0 | 0.00 | 0.00 | 0.00 | 78 | 1009.1 |
| 20260505203047 | 83 | 103 | 5.0 | 13.0 | 0.00 | 0.00 | 0.00 | 77 | 1009.2 |
| 20260505201551 | 83 | 125 | 4.0 | 14.0 | 0.00 | 0.00 | 0.00 | 76 | 1009.4 |
| 20260505200052 | 82 | 125 | 6.0 | 11.0 | 0.00 | 0.00 | 0.00 | 76 | 1009.4 |